Atlantic - Labrador: Past 24 Hour Conditions
Kangiqsualujjuaq Airport
01:00 PM EDT 10 April 2026| Date / Time (EDT) |
Wind(knots) | Conditions | Visibility(km) | Pressure(kPa) | Air temp(°C) | Relative humidity(%) | Dew point(°C) | Wind Chill |
|---|---|---|---|---|---|---|---|---|
| 10 April 2026 | ||||||||
| 13:00 | WNW 10 | Partly Cloudy | 24 | 101.4 | -9 | 74 | -13 | -16 |
| 12:00 | NW 10 | Partly Cloudy | 24 | 101.2 | -9 | 77 | -13 | -16 |
| 11:00 | NW 10 | Mostly Cloudy | 24 | 101.1 | -10 | 83 | -12 | -18 |
| 10:00 | WNW 5 | Light Snow | 10 | 101.0 | -11 | 83 | -13 | -16 |
| 9:00 | WNW 6 | Light Snow | 2 | 100.9 | -10 | 86 | -12 | -16 |
| 8:00 | NW 3 | Light Snow | 3 | 100.9 | -10 | 83 | -13 | -13 |
| 7:00 | ESE 2 | N/A | N/A | 100.8 | -10 | 83 | -12 | -12 |
| 6:00 | ESE 2 | N/A | N/A | 100.8 | -10 | 83 | -12 | -12 |
| 5:00 | ENE 4 | N/A | N/A | 100.8 | -10 | 83 | -13 | -14 |
| 4:00 | ESE 9 | N/A | N/A | 100.8 | -10 | 70 | -15 | -18 |
| 3:00 | E 6 | N/A | N/A | 101.0 | -10 | 52 | -18 | -16 |
| 2:00 | SE 7 | N/A | N/A | 101.0 | -10 | 49 | -19 | -16 |
| 1:00 | ESE 10 | N/A | N/A | 101.2 | -10 | 50 | -18 | -18 |
| 0:00 | SE 9 | N/A | N/A | 101.4 | -11 | 56 | -18 | -19 |
| 09 April 2026 | ||||||||
| 23:00 | SE 11 | N/A | N/A | 101.6 | -12 | 52 | -19 | -20 |
| 22:00 | SE 13 gusts 19 | N/A | N/A | 101.8 | -12 | 55 | -19 | -22 |
| 21:00 | ESE 10 | N/A | N/A | 101.9 | -13 | 53 | -20 | -21 |
| 20:00 | SSE 22 | N/A | N/A | 102.0 | -14 | 55 | -21 | -26 |
| 19:00 | SE 14 gusts 21 | N/A | N/A | 102.1 | -14 | 55 | -21 | -24 |
| 18:00 | SE 12 gusts 18 | N/A | N/A | 102.3 | -14 | 55 | -21 | -23 |
| 17:00 | SE 15 gusts 21 | N/A | N/A | 102.3 | -14 | 56 | -21 | -24 |
| 16:00 | SE 16 | N/A | N/A | 102.4 | -14 | 59 | -20 | -24 |
| 15:00 | SSE 15 | Drifting Snow | 24 | 102.4 | -14 | 58 | -21 | -25 |
| 14:00 | SSE 19 | Drifting Snow | 24 | 102.5 | -15 | 56 | -22 | -27 |
| 13:00 | SSE 16 gusts 22 | Drifting Snow | 24 | 102.6 | -16 | 62 | -22 | -27 |
If you require additional historical weather information, please visit Climate Data Online
Zoom-in to make a selection
Legend:
Atlantic - Labrador Area
Another Region
Features
Colour-coded weather alerts
Learn more about weather alerting in Canada
- Date modified: